| time (UTC) | temp F | wind direction | speed MPH | gust MPH | rain 1hr in | rain 24hr in | rain mn in | humidity % | barometer mb |
| 20260906194540 | 77 | 334 | 0.0 | 1.0 | 0.00 | 0.00 | 0.00 | 51 | 1017.7 |
| 20260906194034 | 77 | 335 | 0.0 | 1.0 | 0.00 | 0.00 | 0.00 | 50 | 1017.6 |
| 20260906193556 | 77 | 84 | 0.0 | 0.0 | 0.00 | 0.00 | 0.00 | 49 | 1017.6 |
| 20260906193033 | 77 | 84 | 0.0 | 0.0 | 0.00 | 0.00 | 0.00 | 49 | 1017.5 |
| 20260906192547 | 77 | 84 | 0.0 | 1.0 | 0.00 | 0.00 | 0.00 | 49 | 1017.5 |
| 20260906192044 | 78 | 84 | 0.0 | 1.0 | 0.00 | 0.00 | 0.00 | 49 | 1017.3 |
| 20260906191558 | 78 | 100 | 0.0 | 0.0 | 0.00 | 0.00 | 0.00 | 47 | 1017.3 |
| 20260906191031 | 78 | 100 | 0.0 | 0.0 | 0.00 | 0.00 | 0.00 | 47 | 1017.3 |
| 20260906190544 | 78 | 100 | 0.0 | 2.0 | 0.00 | 0.00 | 0.00 | 48 | 1017.2 |
| 20260906190034 | 78 | 100 | 0.0 | 3.0 | 0.00 | 0.00 | 0.00 | 46 | 1017.2 |
| 20260906185548 | 78 | 85 | 1.0 | 3.0 | 0.00 | 0.00 | 0.00 | 46 | 1017.2 |
| 20260906185045 | 79 | 107 | 1.0 | 2.0 | 0.00 | 0.00 | 0.00 | 46 | 1017.3 |
| 20260906184601 | 79 | 103 | 1.0 | 3.0 | 0.00 | 0.00 | 0.00 | 46 | 1017.2 |
| 20260906184035 | 79 | 94 | 1.0 | 3.0 | 0.00 | 0.00 | 0.00 | 45 | 1017.2 |
| 20260906183605 | 79 | 82 | 0.0 | 3.0 | 0.00 | 0.00 | 0.00 | 45 | 1017.2 |
| 20260906183043 | 80 | 90 | 1.0 | 3.0 | 0.00 | 0.00 | 0.00 | 44 | 1017.3 |
| 20260906182605 | 80 | 102 | 1.0 | 2.0 | 0.00 | 0.00 | 0.00 | 44 | 1017.3 |
| 20260906182037 | 80 | 143 | 0.0 | 3.0 | 0.00 | 0.00 | 0.00 | 44 | 1017.5 |
| 20260906181558 | 80 | 135 | 1.0 | 3.0 | 0.00 | 0.00 | 0.00 | 43 | 1017.4 |
| 20260906181107 | 81 | 132 | 1.0 | 3.0 | 0.00 | 0.00 | 0.00 | 44 | 1017.4 |
| 20260906180539 | 81 | 134 | 2.0 | 3.0 | 0.00 | 0.00 | 0.00 | 43 | 1017.3 |
| 20260906180045 | 81 | 132 | 1.0 | 3.0 | 0.00 | 0.00 | 0.00 | 43 | 1017.5 |
| 20260906175545 | 81 | 161 | 1.0 | 3.0 | 0.00 | 0.00 | 0.00 | 43 | 1017.6 |
| 20260906175044 | 81 | 140 | 1.0 | 3.0 | 0.00 | 0.00 | 0.00 | 43 | 1017.6 |
| 20260906174603 | 82 | 158 | 1.0 | 5.0 | 0.00 | 0.00 | 0.00 | 42 | 1017.7 |
| 20260906174108 | 82 | 154 | 2.0 | 3.0 | 0.00 | 0.00 | 0.00 | 41 | 1017.5 |
| 20260906173539 | 82 | 119 | 1.0 | 3.0 | 0.00 | 0.00 | 0.00 | 41 | 1017.4 |
| 20260906173028 | 82 | 141 | 1.0 | 2.0 | 0.00 | 0.00 | 0.00 | 41 | 1017.4 |
| 20260906172546 | 82 | 165 | 0.0 | 1.0 | 0.00 | 0.00 | 0.00 | 40 | 1017.5 |
| 20260906172038 | 82 | 196 | 0.0 | 3.0 | 0.00 | 0.00 | 0.00 | 40 | 1017.7 |
| 20260906171532 | 83 | 168 | 1.0 | 3.0 | 0.00 | 0.00 | 0.00 | 40 | 1017.7 |
| 20260906171057 | 83 | 147 | 1.0 | 3.0 | 0.00 | 0.00 | 0.00 | 40 | 1017.7 |
| 20260906170528 | 83 | 207 | 1.0 | 5.0 | 0.00 | 0.00 | 0.00 | 39 | 1017.6 |
| 20260906170058 | 83 | 142 | 2.0 | 9.0 | 0.00 | 0.00 | 0.00 | 39 | 1017.3 |
| 20260906165548 | 83 | 71 | 5.0 | 10.0 | 0.00 | 0.00 | 0.00 | 38 | 1016.9 |
| 20260906165045 | 83 | 82 | 5.0 | 10.0 | 0.00 | 0.00 | 0.00 | 39 | 1016.8 |
| 20260906164536 | 83 | 82 | 4.0 | 10.0 | 0.00 | 0.00 | 0.00 | 38 | 1016.8 |
| 20260906164026 | 83 | 113 | 6.0 | 11.0 | 0.00 | 0.00 | 0.00 | 38 | 1017.0 |
| 20260906163531 | 83 | 99 | 7.0 | 11.0 | 0.00 | 0.00 | 0.00 | 38 | 1017.0 |
| 20260906163040 | 84 | 127 | 7.0 | 11.0 | 0.00 | 0.00 | 0.00 | 39 | 1017.3 |
| 20260906162532 | 84 | 111 | 4.0 | 8.0 | 0.00 | 0.00 | 0.00 | 39 | 1017.6 |
| 20260906162047 | 84 | 126 | 2.0 | 9.0 | 0.00 | 0.00 | 0.00 | 38 | 1017.9 |
| 20260906161542 | 83 | 126 | 5.0 | 12.0 | 0.00 | 0.00 | 0.00 | 38 | 1017.7 |
| 20260906161032 | 84 | 155 | 6.0 | 12.0 | 0.00 | 0.00 | 0.00 | 38 | 1017.3 |
| 20260906160543 | 84 | 94 | 7.0 | 12.0 | 0.00 | 0.00 | 0.00 | 37 | 1017.3 |
| 20260906160031 | 84 | 111 | 5.0 | 10.0 | 0.00 | 0.00 | 0.00 | 37 | 1017.6 |
| 20260906155547 | 84 | 138 | 4.0 | 8.0 | 0.00 | 0.00 | 0.00 | 37 | 1018.2 |
| 20260906155029 | 84 | 107 | 5.0 | 9.0 | 0.00 | 0.00 | 0.00 | 37 | 1018.0 |
| 20260906154530 | 84 | 120 | 5.0 | 9.0 | 0.00 | 0.00 | 0.00 | 36 | 1017.8 |
| 20260906154025 | 84 | 105 | 6.0 | 8.0 | 0.00 | 0.00 | 0.00 | 36 | 1017.9 |
| 20260906153605 | 84 | 144 | 5.0 | 9.0 | 0.00 | 0.00 | 0.00 | 35 | 1018.3 |
| 20260906153043 | 84 | 150 | 4.0 | 11.0 | 0.00 | 0.00 | 0.00 | 36 | 1018.3 |
| 20260906152559 | 84 | 148 | 6.0 | 11.0 | 0.00 | 0.00 | 0.00 | 35 | 1018.1 |
| 20260906152055 | 85 | 142 | 5.0 | 9.0 | 0.00 | 0.00 | 0.00 | 35 | 1018.1 |
| 20260906151546 | 85 | 119 | 6.0 | 9.0 | 0.00 | 0.00 | 0.00 | 35 | 1018.2 |
| 20260906151036 | 85 | 87 | 4.0 | 8.0 | 0.00 | 0.00 | 0.00 | 35 | 1018.1 |
| 20260906150552 | 85 | 95 | 3.0 | 8.0 | 0.00 | 0.00 | 0.00 | 34 | 1018.0 |
| 20260906150042 | 85 | 90 | 4.0 | 8.0 | 0.00 | 0.00 | 0.00 | 35 | 1018.1 |
| 20260906145532 | 85 | 94 | 3.0 | 7.0 | 0.00 | 0.00 | 0.00 | 36 | 1018.4 |
| 20260906145038 | 86 | 90 | 3.0 | 8.0 | 0.00 | 0.00 | 0.00 | 35 | 1018.6 |
| 20260906144532 | 86 | 112 | 3.0 | 8.0 | 0.00 | 0.00 | 0.00 | 34 | 1018.7 |
| 20260906144044 | 86 | 168 | 4.0 | 9.0 | 0.00 | 0.00 | 0.00 | 34 | 1018.7 |
| 20260906143536 | 86 | 107 | 5.0 | 9.0 | 0.00 | 0.00 | 0.00 | 34 | 1018.5 |
| 20260906143039 | 86 | 127 | 5.0 | 8.0 | 0.00 | 0.00 | 0.00 | 34 | 1018.5 |
| 20260906142531 | 86 | 119 | 1.0 | 12.0 | 0.00 | 0.00 | 0.00 | 35 | 1018.6 |
| 20260906142040 | 86 | 102 | 7.0 | 10.0 | 0.00 | 0.00 | 0.00 | 35 | 1018.6 |
| 20260906141558 | 86 | 71 | 2.0 | 9.0 | 0.00 | 0.00 | 0.00 | 33 | 1018.4 |
| 20260906141029 | 86 | 88 | 4.0 | 10.0 | 0.00 | 0.00 | 0.00 | 34 | 1018.5 |
| 20260906140607 | 86 | 88 | 3.0 | 9.0 | 0.00 | 0.00 | 0.00 | 34 | 1018.7 |
| 20260906140035 | 86 | 126 | 4.0 | 9.0 | 0.00 | 0.00 | 0.00 | 34 | 1018.8 |
| 20260906135549 | 87 | 123 | 6.0 | 10.0 | 0.00 | 0.00 | 0.00 | 34 | 1018.9 |
| 20260906135038 | 87 | 81 | 5.0 | 11.0 | 0.00 | 0.00 | 0.00 | 34 | 1018.8 |
| 20260906134530 | 87 | 112 | 7.0 | 11.0 | 0.00 | 0.00 | 0.00 | 35 | 1018.8 |
| 20260906134037 | 87 | 144 | 6.0 | 10.0 | 0.00 | 0.00 | 0.00 | 32 | 1018.8 |
| 20260906133552 | 87 | 113 | 4.0 | 6.0 | 0.00 | 0.00 | 0.00 | 32 | 1018.9 |
| 20260906133046 | 88 | 155 | 0.0 | 12.0 | 0.00 | 0.00 | 0.00 | 32 | 1019.0 |
| 20260906132535 | 88 | 184 | 6.0 | 12.0 | 0.00 | 0.00 | 0.00 | 32 | 1019.1 |
| 20260906132059 | 87 | 146 | 5.0 | 10.0 | 0.00 | 0.00 | 0.00 | 33 | 1019.1 |
| 20260906131547 | 87 | 198 | 1.0 | 11.0 | 0.00 | 0.00 | 0.00 | 35 | 1019.1 |
| 20260906131040 | 86 | 194 | 4.0 | 12.0 | 0.00 | 0.00 | 0.00 | 34 | 1019.2 |
| 20260906130613 | 86 | 152 | 7.0 | 12.0 | 0.00 | 0.00 | 0.00 | 34 | 1019.4 |
| 20260906130042 | 86 | 142 | 5.0 | 9.0 | 0.00 | 0.00 | 0.00 | 35 | 1019.3 |
| 20260906125533 | 85 | 165 | 4.0 | 8.0 | 0.00 | 0.00 | 0.00 | 37 | 1019.3 |
| 20260906125057 | 85 | 153 | 4.0 | 11.0 | 0.00 | 0.00 | 0.00 | 37 | 1019.4 |
| 20260906124554 | 85 | 126 | 8.0 | 11.0 | 0.00 | 0.00 | 0.00 | 35 | 1019.4 |
| 20260906124042 | 85 | 139 | 5.0 | 10.0 | 0.00 | 0.00 | 0.00 | 36 | 1019.5 |
| 20260906123532 | 85 | 109 | 4.0 | 12.0 | 0.00 | 0.00 | 0.00 | 36 | 1019.6 |
| 20260906123032 | 85 | 140 | 7.0 | 12.0 | 0.00 | 0.00 | 0.00 | 37 | 1019.7 |
| 20260906122545 | 85 | 155 | 4.0 | 11.0 | 0.00 | 0.00 | 0.00 | 35 | 1019.6 |
| 20260906122031 | 86 | 140 | 4.0 | 12.0 | 0.00 | 0.00 | 0.00 | 34 | 1019.5 |
| 20260906121608 | 86 | 130 | 6.0 | 12.0 | 0.00 | 0.00 | 0.00 | 34 | 1019.6 |
| 20260906121044 | 86 | 157 | 7.0 | 11.0 | 0.00 | 0.00 | 0.00 | 35 | 1019.6 |
| 20260906120558 | 85 | 151 | 7.0 | 15.0 | 0.00 | 0.00 | 0.00 | 35 | 1019.6 |
| 20260906120042 | 85 | 66 | 8.0 | 15.0 | 0.00 | 0.00 | 0.00 | 35 | 1019.6 |
| 20260906115532 | 85 | 137 | 7.0 | 12.0 | 0.00 | 0.00 | 0.00 | 37 | 1019.7 |
| 20260906115102 | 84 | 123 | 6.0 | 12.0 | 0.00 | 0.00 | 0.00 | 38 | 1019.6 |
| 20260906114533 | 84 | 131 | 7.0 | 11.0 | 0.00 | 0.00 | 0.00 | 37 | 1019.7 |
| 20260906114044 | 84 | 98 | 3.0 | 12.0 | 0.00 | 0.00 | 0.00 | 40 | 1019.7 |
| 20260906113533 | 83 | 87 | 4.0 | 12.0 | 0.00 | 0.00 | 0.00 | 41 | 1019.6 |
| 20260906113043 | 82 | 105 | 6.0 | 11.0 | 0.00 | 0.00 | 0.00 | 42 | 1019.6 |
| 20260906112533 | 82 | 86 | 5.0 | 11.0 | 0.00 | 0.00 | 0.00 | 42 | 1019.6 |
| 20260906112039 | 82 | 134 | 6.0 | 11.0 | 0.00 | 0.00 | 0.00 | 42 | 1019.7 |
| 20260906111543 | 81 | 75 | 3.0 | 9.0 | 0.00 | 0.00 | 0.00 | 42 | 1019.7 |
| 20260906111037 | 81 | 48 | 4.0 | 10.0 | 0.00 | 0.00 | 0.00 | 43 | 1019.8 |
| 20260906110527 | 81 | 49 | 3.0 | 10.0 | 0.00 | 0.00 | 0.00 | 42 | 1020.0 |
| 20260906110051 | 81 | 49 | 4.0 | 6.0 | 0.00 | 0.00 | 0.00 | 42 | 1020.1 |
| 20260906105609 | 81 | 76 | 3.0 | 8.0 | 0.00 | 0.00 | 0.00 | 44 | 1020.2 |
| 20260906105038 | 81 | 138 | 2.0 | 9.0 | 0.00 | 0.00 | 0.00 | 44 | 1020.3 |
| 20260906104531 | 81 | 78 | 3.0 | 9.0 | 0.00 | 0.00 | 0.00 | 44 | 1020.2 |
| 20260906104041 | 80 | 103 | 4.0 | 8.0 | 0.00 | 0.00 | 0.00 | 45 | 1020.2 |
| 20260906103538 | 80 | 117 | 4.0 | 8.0 | 0.00 | 0.00 | 0.00 | 45 | 1020.3 |
| 20260906103029 | 80 | 88 | 4.0 | 7.0 | 0.00 | 0.00 | 0.00 | 45 | 1020.4 |
| 20260906102545 | 80 | 126 | 3.0 | 8.0 | 0.00 | 0.00 | 0.00 | 44 | 1020.3 |
| 20260906102034 | 80 | 134 | 2.0 | 8.0 | 0.00 | 0.00 | 0.00 | 44 | 1020.5 |
| 20260906101551 | 80 | 114 | 3.0 | 8.0 | 0.00 | 0.00 | 0.00 | 44 | 1020.7 |
| 20260906101037 | 80 | 138 | 4.0 | 10.0 | 0.00 | 0.00 | 0.00 | 44 | 1020.9 |
| 20260906100555 | 80 | 162 | 4.0 | 10.0 | 0.00 | 0.00 | 0.00 | 44 | 1021.0 |
| 20260906100045 | 80 | 91 | 6.0 | 11.0 | 0.00 | 0.00 | 0.00 | 45 | 1021.1 |
| 20260906095536 | 79 | 111 | 7.0 | 13.0 | 0.00 | 0.00 | 0.00 | 45 | 1021.1 |
| 20260906095057 | 79 | 128 | 9.0 | 13.0 | 0.00 | 0.00 | 0.00 | 44 | 1021.2 |
| 20260906094534 | 80 | 134 | 7.0 | 12.0 | 0.00 | 0.00 | 0.00 | 44 | 1021.2 |
| 20260906094039 | 79 | 128 | 5.0 | 11.0 | 0.00 | 0.00 | 0.00 | 45 | 1021.0 |
| 20260906093600 | 79 | 60 | 5.0 | 10.0 | 0.00 | 0.00 | 0.00 | 47 | 1021.1 |
| 20260906093030 | 78 | 105 | 6.0 | 9.0 | 0.00 | 0.00 | 0.00 | 47 | 1021.2 |
| 20260906092608 | 77 | 77 | 5.0 | 11.0 | 0.00 | 0.00 | 0.00 | 49 | 1021.2 |
| 20260906092045 | 77 | 101 | 6.0 | 10.0 | 0.00 | 0.00 | 0.00 | 46 | 1021.3 |
| 20260906091533 | 77 | 107 | 6.0 | 11.0 | 0.00 | 0.00 | 0.00 | 48 | 1021.2 |
| 20260906091035 | 76 | 114 | 5.0 | 10.0 | 0.00 | 0.00 | 0.00 | 50 | 1021.2 |
| 20260906090612 | 75 | 94 | 7.0 | 10.0 | 0.00 | 0.00 | 0.00 | 50 | 1021.2 |
| 20260906090035 | 75 | 93 | 5.0 | 8.0 | 0.00 | 0.00 | 0.00 | 51 | 1021.3 |
| 20260906085542 | 74 | 138 | 5.0 | 10.0 | 0.00 | 0.00 | 0.00 | 52 | 1021.3 |
| 20260906085038 | 74 | 82 | 7.0 | 10.0 | 0.00 | 0.00 | 0.00 | 52 | 1021.3 |
| 20260906084533 | 73 | 108 | 6.0 | 10.0 | 0.00 | 0.00 | 0.00 | 53 | 1021.4 |
| 20260906084041 | 73 | 123 | 5.0 | 10.0 | 0.00 | 0.00 | 0.00 | 54 | 1021.5 |
| 20260906083532 | 73 | 120 | 7.0 | 10.0 | 0.00 | 0.00 | 0.00 | 53 | 1021.7 |
| 20260906083101 | 72 | 142 | 6.0 | 9.0 | 0.00 | 0.00 | 0.00 | 55 | 1021.8 |
| 20260906082556 | 72 | 136 | 6.0 | 9.0 | 0.00 | 0.00 | 0.00 | 55 | 1021.8 |
| 20260906082043 | 72 | 84 | 3.0 | 8.0 | 0.00 | 0.00 | 0.00 | 55 | 1021.9 |
| 20260906081536 | 72 | 88 | 6.0 | 8.0 | 0.00 | 0.00 | 0.00 | 54 | 1021.9 |
| 20260906081042 | 72 | 112 | 4.0 | 10.0 | 0.00 | 0.00 | 0.00 | 58 | 1021.8 |
| 20260906080618 | 71 | 98 | 5.0 | 10.0 | 0.00 | 0.00 | 0.00 | 57 | 1021.9 |
| 20260906080045 | 70 | 84 | 6.0 | 9.0 | 0.00 | 0.00 | 0.00 | 59 | 1022.0 |
| 20260906075534 | 69 | 93 | 4.0 | 9.0 | 0.00 | 0.00 | 0.00 | 61 | 1022.1 |
| 20260906075044 | 68 | 65 | 5.0 | 9.0 | 0.00 | 0.00 | 0.00 | 61 | 1022.1 |
| 20260906074534 | 68 | 78 | 2.0 | 8.0 | 0.00 | 0.00 | 0.00 | 62 | 1022.0 |
| 20260906074034 | 68 | 146 | 4.0 | 8.0 | 0.00 | 0.00 | 0.00 | 61 | 1022.0 |
| 20260906073544 | 68 | 120 | 4.0 | 8.0 | 0.00 | 0.00 | 0.00 | 62 | 1022.0 |
| 20260906073034 | 67 | 86 | 3.0 | 8.0 | 0.00 | 0.00 | 0.00 | 62 | 1022.1 |
| 20260906072540 | 66 | 142 | 5.0 | 8.0 | 0.00 | 0.00 | 0.00 | 64 | 1022.5 |
| 20260906072030 | 65 | 128 | 4.0 | 7.0 | 0.00 | 0.00 | 0.00 | 66 | 1022.6 |
| 20260906071541 | 64 | 93 | 2.0 | 4.0 | 0.00 | 0.00 | 0.00 | 69 | 1022.6 |
| 20260906071027 | 63 | 92 | 2.0 | 6.0 | 0.00 | 0.00 | 0.00 | 70 | 1022.6 |
| 20260906070541 | 62 | 121 | 3.0 | 6.0 | 0.00 | 0.00 | 0.00 | 73 | 1022.6 |
| 20260906070033 | 61 | 71 | 2.0 | 3.0 | 0.00 | 0.00 | 0.00 | 73 | 1022.6 |
| 20260906065529 | 60 | 57 | 1.0 | 2.0 | 0.00 | 0.00 | 0.00 | 74 | 1022.6 |
| 20260906065041 | 59 | 55 | 0.0 | 3.0 | 0.00 | 0.00 | 0.00 | 75 | 1022.7 |
| 20260906064600 | 59 | 72 | 1.0 | 3.0 | 0.00 | 0.00 | 0.00 | 76 | 1022.6 |
| 20260906064052 | 58 | 49 | 1.0 | 2.0 | 0.00 | 0.00 | 0.00 | 77 | 1022.5 |
| 20260906063541 | 58 | 58 | 1.0 | 2.0 | 0.00 | 0.00 | 0.00 | 77 | 1022.6 |
| 20260906063031 | 57 | 44 | 1.0 | 2.0 | 0.00 | 0.00 | 0.00 | 78 | 1022.7 |
| 20260906062545 | 57 | 20 | 1.0 | 2.0 | 0.00 | 0.00 | 0.00 | 78 | 1022.8 |
| 20260906062035 | 57 | 19 | 0.0 | 1.0 | 0.00 | 0.00 | 0.00 | 78 | 1022.9 |
| 20260906061545 | 56 | 12 | 1.0 | 1.0 | 0.00 | 0.00 | 0.00 | 79 | 1022.9 |
| 20260906061037 | 56 | 355 | 1.0 | 1.0 | 0.00 | 0.00 | 0.00 | 79 | 1022.9 |
| 20260906060541 | 55 | 9 | 0.0 | 1.0 | 0.00 | 0.00 | 0.00 | 79 | 1022.7 |
| 20260906060030 | 55 | 15 | 0.0 | 2.0 | 0.00 | 0.00 | 0.00 | 79 | 1022.6 |
| 20260906055541 | 55 | 31 | 1.0 | 2.0 | 0.00 | 0.00 | 0.00 | 80 | 1022.5 |
| 20260906055033 | 55 | 23 | 1.0 | 3.0 | 0.00 | 0.00 | 0.00 | 80 | 1022.5 |
| 20260906054544 | 55 | 18 | 2.0 | 3.0 | 0.00 | 0.00 | 0.00 | 80 | 1022.5 |
| 20260906054033 | 55 | 26 | 1.0 | 2.0 | 0.00 | 0.00 | 0.00 | 80 | 1022.5 |
| 20260906053526 | 55 | 19 | 1.0 | 2.0 | 0.00 | 0.00 | 0.00 | 80 | 1022.5 |
| 20260906053044 | 54 | 33 | 1.0 | 2.0 | 0.00 | 0.00 | 0.00 | 81 | 1022.5 |
| 20260906052540 | 54 | 28 | 1.0 | 2.0 | 0.00 | 0.00 | 0.00 | 81 | 1022.6 |
| 20260906052031 | 54 | 355 | 0.0 | 1.0 | 0.00 | 0.00 | 0.00 | 81 | 1022.7 |
| 20260906051542 | 54 | 319 | 0.0 | 1.0 | 0.00 | 0.00 | 0.00 | 81 | 1022.8 |
| 20260906051033 | 54 | 319 | 0.0 | 1.0 | 0.00 | 0.00 | 0.00 | 81 | 1022.8 |
| 20260906050543 | 54 | 317 | 1.0 | 1.0 | 0.00 | 0.00 | 0.00 | 81 | 1022.8 |
| 20260906050031 | 54 | 300 | 0.0 | 2.0 | 0.00 | 0.00 | 0.00 | 81 | 1022.7 |
| 20260906045547 | 54 | 300 | 0.0 | 2.0 | 0.00 | 0.00 | 0.00 | 80 | 1022.7 |
| 20260906045041 | 54 | 309 | 1.0 | 2.0 | 0.00 | 0.00 | 0.00 | 80 | 1022.6 |
| 20260906044530 | 55 | 311 | 1.0 | 1.0 | 0.00 | 0.00 | 0.00 | 79 | 1022.6 |
| 20260906044101 | 55 | 332 | 0.0 | 2.0 | 0.00 | 0.00 | 0.00 | 78 | 1022.5 |
| 20260906043556 | 55 | 360 | 1.0 | 2.0 | 0.00 | 0.00 | 0.00 | 78 | 1022.3 |
| 20260906043102 | 55 | 15 | 1.0 | 2.0 | 0.00 | 0.00 | 0.00 | 78 | 1022.4 |
| 20260906042531 | 55 | 351 | 1.0 | 1.0 | 0.00 | 0.00 | 0.00 | 78 | 1022.5 |
| 20260906042042 | 55 | 12 | 1.0 | 1.0 | 0.00 | 0.00 | 0.00 | 78 | 1022.5 |
| 20260906041533 | 55 | 27 | 1.0 | 2.0 | 0.00 | 0.00 | 0.00 | 77 | 1022.6 |
| 20260906041028 | 55 | 360 | 1.0 | 2.0 | 0.00 | 0.00 | 0.00 | 77 | 1022.7 |
| 20260906040543 | 55 | 355 | 1.0 | 1.0 | 0.00 | 0.00 | 0.00 | 77 | 1022.7 |
| 20260906040029 | 55 | 355 | 0.0 | 2.0 | 0.00 | 0.00 | 0.00 | 77 | 1022.8 |
| 20260906035529 | 55 | 355 | 0.0 | 2.0 | 0.00 | 0.00 | 0.00 | 77 | 1022.8 |
| 20260906035045 | 55 | 342 | 0.0 | 3.0 | 0.00 | 0.00 | 0.00 | 77 | 1022.7 |
| 20260906034534 | 55 | 14 | 1.0 | 3.0 | 0.00 | 0.00 | 0.00 | 76 | 1022.6 |
| 20260906034105 | 55 | 14 | 1.0 | 3.0 | 0.00 | 0.00 | 0.00 | 76 | 1022.6 |
| 20260906033536 | 55 | 34 | 1.0 | 2.0 | 0.00 | 0.00 | 0.00 | 76 | 1022.7 |
| 20260906033028 | 56 | 26 | 1.0 | 2.0 | 0.00 | 0.00 | 0.00 | 76 | 1022.8 |
| 20260906032543 | 56 | 22 | 1.0 | 2.0 | 0.00 | 0.00 | 0.00 | 76 | 1022.9 |
| 20260906032035 | 56 | 47 | 1.0 | 2.0 | 0.00 | 0.00 | 0.00 | 75 | 1022.9 |
| 20260906031531 | 56 | 15 | 0.0 | 3.0 | 0.00 | 0.00 | 0.00 | 75 | 1023.0 |
| 20260906031043 | 56 | 350 | 0.0 | 3.0 | 0.00 | 0.00 | 0.00 | 75 | 1023.0 |
| 20260906030532 | 56 | 15 | 2.0 | 3.0 | 0.00 | 0.00 | 0.00 | 74 | 1023.0 |
| 20260906030032 | 57 | 23 | 1.0 | 3.0 | 0.00 | 0.00 | 0.00 | 74 | 1023.0 |
| 20260906025608 | 57 | 25 | 1.0 | 2.0 | 0.00 | 0.00 | 0.00 | 73 | 1023.0 |
| 20260906025039 | 57 | 32 | 1.0 | 2.0 | 0.00 | 0.00 | 0.00 | 73 | 1023.1 |
| 20260906024534 | 57 | 355 | 0.0 | 2.0 | 0.00 | 0.00 | 0.00 | 73 | 1023.1 |
| 20260906024046 | 57 | 10 | 1.0 | 2.0 | 0.00 | 0.00 | 0.00 | 73 | 1023.1 |
| 20260906023541 | 57 | 5 | 1.0 | 2.0 | 0.00 | 0.00 | 0.00 | 73 | 1023.1 |
| 20260906023031 | 57 | 325 | 1.0 | 3.0 | 0.00 | 0.00 | 0.00 | 73 | 1023.3 |
| 20260906022544 | 57 | 5 | 1.0 | 3.0 | 0.00 | 0.00 | 0.00 | 73 | 1023.2 |
| 20260906022042 | 57 | 23 | 1.0 | 2.0 | 0.00 | 0.00 | 0.00 | 72 | 1023.1 |
| 20260906021534 | 58 | 9 | 1.0 | 2.0 | 0.00 | 0.00 | 0.00 | 72 | 1023.2 |
| 20260906021045 | 58 | 360 | 1.0 | 2.0 | 0.00 | 0.00 | 0.00 | 73 | 1023.1 |
| 20260906020539 | 58 | 11 | 1.0 | 1.0 | 0.00 | 0.00 | 0.00 | 72 | 1023.1 |
| 20260906020028 | 58 | 341 | 0.0 | 2.0 | 0.00 | 0.00 | 0.00 | 72 | 1023.1 |
| 20260906015546 | 58 | 355 | 1.0 | 2.0 | 0.00 | 0.00 | 0.00 | 72 | 1023.2 |
| 20260906015035 | 58 | 5 | 1.0 | 2.0 | 0.00 | 0.00 | 0.00 | 73 | 1023.2 |
| 20260906014544 | 58 | 12 | 1.0 | 2.0 | 0.00 | 0.00 | 0.00 | 73 | 1023.2 |
| 20260906014035 | 58 | 5 | 1.0 | 2.0 | 0.00 | 0.00 | 0.00 | 73 | 1023.3 |
| 20260906013546 | 58 | 348 | 1.0 | 1.0 | 0.00 | 0.00 | 0.00 | 73 | 1023.4 |
| 20260906013028 | 58 | 355 | 1.0 | 2.0 | 0.00 | 0.00 | 0.00 | 73 | 1023.4 |
| 20260906012539 | 58 | 339 | 1.0 | 2.0 | 0.00 | 0.00 | 0.00 | 73 | 1023.4 |
| 20260906012031 | 58 | 321 | 0.0 | 1.0 | 0.00 | 0.00 | 0.00 | 74 | 1023.4 |
| 20260906011539 | 58 | 328 | 0.0 | 1.0 | 0.00 | 0.00 | 0.00 | 73 | 1023.4 |
| 20260906011031 | 58 | 342 | 0.0 | 1.0 | 0.00 | 0.00 | 0.00 | 72 | 1023.4 |
| 20260906010545 | 58 | 331 | 1.0 | 1.0 | 0.00 | 0.00 | 0.00 | 71 | 1023.4 |
| 20260906010107 | 58 | 344 | 0.0 | 1.0 | 0.00 | 0.00 | 0.00 | 71 | 1023.4 |
| 20260906005536 | 59 | 344 | 0.0 | 2.0 | 0.00 | 0.00 | 0.00 | 70 | 1023.4 |
| 20260906005044 | 59 | 5 | 1.0 | 2.0 | 0.00 | 0.00 | 0.00 | 70 | 1023.4 |
| 20260906004535 | 59 | 9 | 1.0 | 2.0 | 0.00 | 0.00 | 0.00 | 70 | 1023.3 |
| 20260906004032 | 59 | 355 | 0.0 | 1.0 | 0.00 | 0.00 | 0.00 | 70 | 1023.5 |
| 20260906003547 | 59 | 9 | 0.0 | 1.0 | 0.00 | 0.00 | 0.00 | 69 | 1023.5 |
| 20260906003038 | 59 | 9 | 0.0 | 2.0 | 0.00 | 0.00 | 0.00 | 69 | 1023.4 |
| 20260906002532 | 59 | 11 | 1.0 | 2.0 | 0.00 | 0.00 | 0.00 | 70 | 1023.5 |
| 20260906002036 | 59 | 5 | 1.0 | 2.0 | 0.00 | 0.00 | 0.00 | 69 | 1023.6 |
| 20260906001531 | 59 | 360 | 1.0 | 2.0 | 0.00 | 0.00 | 0.00 | 69 | 1023.6 |
| 20260906001050 | 59 | 20 | 1.0 | 2.0 | 0.00 | 0.00 | 0.00 | 69 | 1023.6 |
| 20260906000526 | 60 | 19 | 2.0 | 2.0 | 0.00 | 0.00 | 0.00 | 70 | 1023.6 |
| 20260906000049 | 60 | 9 | 1.0 | 2.0 | 0.00 | 0.00 | 0.00 | 71 | 1023.6 |
| 20260905235547 | 60 | 348 | 1.0 | 1.0 | 0.00 | 0.00 | 0.00 | 71 | 1023.6 |
| 20260905235038 | 60 | 355 | 0.0 | 1.0 | 0.00 | 0.00 | 0.00 | 71 | 1023.6 |
| 20260905234531 | 61 | 355 | 1.0 | 1.0 | 0.00 | 0.00 | 0.00 | 70 | 1023.6 |
| 20260905234038 | 61 | 347 | 0.0 | 1.0 | 0.00 | 0.00 | 0.00 | 70 | 1023.6 |
| 20260905233533 | 61 | 350 | 0.0 | 1.0 | 0.00 | 0.00 | 0.00 | 69 | 1023.6 |
| 20260905233045 | 61 | 349 | 0.0 | 1.0 | 0.00 | 0.00 | 0.00 | 69 | 1023.6 |
| 20260905232535 | 61 | 350 | 1.0 | 1.0 | 0.00 | 0.00 | 0.00 | 68 | 1023.6 |
| 20260905232031 | 61 | 5 | 0.0 | 1.0 | 0.00 | 0.00 | 0.00 | 68 | 1023.5 |
| 20260905231541 | 61 | 11 | 1.0 | 1.0 | 0.00 | 0.00 | 0.00 | 69 | 1023.6 |
| 20260905231034 | 61 | 297 | 0.0 | 1.0 | 0.00 | 0.00 | 0.00 | 69 | 1023.6 |
| 20260905230547 | 61 | 296 | 1.0 | 1.0 | 0.00 | 0.00 | 0.00 | 69 | 1023.6 |
| 20260905230036 | 61 | 342 | 0.0 | 1.0 | 0.00 | 0.00 | 0.00 | 68 | 1023.6 |
| 20260905225551 | 62 | 324 | 0.0 | 1.0 | 0.00 | 0.00 | 0.00 | 68 | 1023.5 |
| 20260905225028 | 62 | 344 | 0.0 | 1.0 | 0.00 | 0.00 | 0.00 | 67 | 1023.5 |
| 20260905224544 | 62 | 346 | 0.0 | 1.0 | 0.00 | 0.00 | 0.00 | 66 | 1023.5 |
| 20260905224035 | 62 | 355 | 0.0 | 1.0 | 0.00 | 0.00 | 0.00 | 66 | 1023.5 |
| 20260905223531 | 62 | 344 | 0.0 | 1.0 | 0.00 | 0.00 | 0.00 | 65 | 1023.5 |
| 20260905223106 | 62 | 336 | 0.0 | 1.0 | 0.00 | 0.00 | 0.00 | 65 | 1023.4 |
| 20260905222539 | 62 | 341 | 0.0 | 0.0 | 0.00 | 0.00 | 0.00 | 65 | 1023.4 |
| 20260905222105 | 62 | 340 | 0.0 | 1.0 | 0.00 | 0.00 | 0.00 | 64 | 1023.4 |
| 20260905221537 | 63 | 340 | 0.0 | 1.0 | 0.00 | 0.00 | 0.00 | 65 | 1023.3 |
| 20260905221054 | 63 | 346 | 0.0 | 1.0 | 0.00 | 0.00 | 0.00 | 63 | 1023.3 |
| 20260905220547 | 63 | 355 | 0.0 | 1.0 | 0.00 | 0.00 | 0.00 | 62 | 1023.3 |
| 20260905220037 | 63 | 360 | 0.0 | 1.0 | 0.00 | 0.00 | 0.00 | 63 | 1023.2 |
| 20260905215550 | 63 | 9 | 0.0 | 2.0 | 0.00 | 0.00 | 0.00 | 62 | 1023.3 |
| 20260905215046 | 64 | 9 | 1.0 | 2.0 | 0.00 | 0.00 | 0.00 | 62 | 1023.3 |
| 20260905214539 | 64 | 5 | 0.0 | 1.0 | 0.00 | 0.00 | 0.00 | 62 | 1023.3 |
| 20260905214032 | 64 | 350 | 0.0 | 1.0 | 0.00 | 0.00 | 0.00 | 61 | 1023.3 |
| 20260905213531 | 64 | 350 | 0.0 | 1.0 | 0.00 | 0.00 | 0.00 | 61 | 1023.3 |
| 20260905213046 | 65 | 350 | 0.0 | 1.0 | 0.00 | 0.00 | 0.00 | 61 | 1023.4 |
| 20260905212543 | 65 | 350 | 0.0 | 1.0 | 0.00 | 0.00 | 0.00 | 60 | 1023.3 |
| 20260905212036 | 65 | 355 | 0.0 | 0.0 | 0.00 | 0.00 | 0.00 | 59 | 1023.4 |
| 20260905211548 | 65 | 355 | 0.0 | 1.0 | 0.00 | 0.00 | 0.00 | 60 | 1023.2 |
| 20260905211038 | 65 | 355 | 0.0 | 1.0 | 0.00 | 0.00 | 0.00 | 60 | 1023.3 |
| 20260905210549 | 65 | 355 | 0.0 | 1.0 | 0.00 | 0.00 | 0.00 | 59 | 1023.2 |
| 20260905210039 | 65 | 350 | 1.0 | 1.0 | 0.00 | 0.00 | 0.00 | 59 | 1023.2 |
| 20260905205534 | 66 | 351 | 0.0 | 1.0 | 0.00 | 0.00 | 0.00 | 59 | 1023.2 |
| 20260905205055 | 66 | 355 | 0.0 | 1.0 | 0.00 | 0.00 | 0.00 | 59 | 1023.1 |
| 20260905204529 | 66 | 355 | 0.0 | 1.0 | 0.00 | 0.00 | 0.00 | 58 | 1023.1 |
| 20260905204055 | 66 | 355 | 0.0 | 1.0 | 0.00 | 0.00 | 0.00 | 57 | 1023.0 |
| 20260905203530 | 66 | 349 | 0.0 | 1.0 | 0.00 | 0.00 | 0.00 | 58 | 1023.0 |
| 20260905203038 | 66 | 348 | 0.0 | 0.0 | 0.00 | 0.00 | 0.00 | 58 | 1023.0 |
| 20260905202532 | 66 | 348 | 0.0 | 1.0 | 0.00 | 0.00 | 0.00 | 57 | 1023.0 |
| 20260905202029 | 67 | 349 | 0.0 | 1.0 | 0.00 | 0.00 | 0.00 | 57 | 1023.0 |
| 20260905201541 | 67 | 342 | 0.0 | 1.0 | 0.00 | 0.00 | 0.00 | 55 | 1023.0 |
| 20260905201032 | 67 | 14 | 0.0 | 1.0 | 0.00 | 0.00 | 0.00 | 54 | 1023.0 |
| 20260905200551 | 67 | 14 | 0.0 | 1.0 | 0.00 | 0.00 | 0.00 | 54 | 1023.0 |
| 20260905200041 | 68 | 17 | 0.0 | 1.0 | 0.00 | 0.00 | 0.00 | 54 | 1022.9 |
| 20260905195600 | 68 | 19 | 0.0 | 1.0 | 0.00 | 0.00 | 0.00 | 52 | 1023.0 |
| 20260905195034 | 68 | 51 | 0.0 | 2.0 | 0.00 | 0.00 | 0.00 | 52 | 1022.9 |